Regional Weather Roundup
Issued by NWS

Home | Current Version | Previous Version | Graphics & Text | Print | Product List | Glossary On
Versions: 1 2 3 4 5 6 7 8 9 10 11 12 13 14 15 16 17 18 19 20 21 22 23 24 25 26 27
000
ASUS45 KBOU 231707
RWRCO

WEATHER ROUNDUP FOR COLORADO
NATIONAL WEATHER SERVICE DENVER/BOULDER CO
1100 AM MDT THU OCT 23 2014

NOTE: "FAIR" INDICATES FEW OR NO CLOUDS BELOW 12000 FEET WITH NO
SIGNIFICANT WEATHER AND/OR OBSTRUCTIONS TO VISIBILITY.

COZ001>005-013-030-031-231800-
...NORTHWEST COLORADO...

CITY           SKY/WX    TMP DP  RH WIND       PRES   REMARKS
CRAIG          SUNNY     54  36  50 E8        30.29S
HAYDEN         SUNNY     52  34  50 SE10      30.29F
MEEKER         SUNNY     53  37  54 CALM      30.30S
MOUNT WERNER   NOT AVBL
STEAMBOAT SPGS SUNNY     46  34  63 CALM      30.31F
WALDEN         MOSUNNY   50  28  43 SW15G22   30.31S
$$

COZ006>008-011-231800-
...WEST CENTRAL VALLEYS...

CITY           SKY/WX    TMP DP  RH WIND       PRES   REMARKS
GRAND JUNCTION SUNNY     60  39  45 SE7       30.27R
MONTROSE       SUNNY     57  36  45 SW3       30.32F
EAGLE          MOSUNNY   39  39 100 W3        30.37F
RIFLE          SUNNY     50  39  66 W3        30.31S
DELTA          SUNNY     57  37  47 SE3       30.31S
NUCLA          SUNNY     54  36  50 CALM      30.35S
$$

COZ017>023-064>068-231800-
...SOUTHWEST COLORADO...

CITY           SKY/WX    TMP DP  RH WIND       PRES   REMARKS
DURANGO        SUNNY     53  38  56 CALM      30.35F
CORTEZ         SUNNY     59  36  42 CALM      30.32F
PAGOSA SPRINGS SUNNY     54  35  48 CALM      30.39F
TELLURIDE      SUNNY     53  30  42 CALM      30.46F
WOLF CREEK PAS SUNNY     41  23  48 CALM        N/A
$$

COZ009-010-012-014-032>034-037-058>063-231800-
...CENTRAL COLORADO...

CITY           SKY/WX    TMP DP  RH WIND       PRES   REMARKS
ASPEN          SUNNY     51  33  50 SW3       30.36F
BUENA VISTA    SUNNY     53  28  38 E5        30.35F
COPPER MTN     SUNNY     39  27  60 SW6G18    30.52S
BERTHOUD PASS  FAIR      30  28  93 NW23      30.51R WCI  17
COTTONWOOD PAS SUNNY     52  23  32 W5        30.43F
GUNNISON       SUNNY     43  30  61 CALM      30.44F
KREMMLING      CLOUDY    36  32  87 CALM        N/A
LEADVILLE      MOSUNNY   46  27  47 NW9G21    30.43S
MONARCH PASS   SUNNY     32  28  86 W24       30.64R WCI  19
SALIDA         SUNNY     56  28  35 CALM      30.42F
SUNLIGHT       SUNNY     45  32  61 CALM      30.50S
WILKERSON PASS NOT AVBL
$$

COZ069>075-231800-
...SAN LUIS VALLEY/SANGRE DE CRISTO MOUNTAINS...

CITY           SKY/WX    TMP DP  RH WIND       PRES   REMARKS
ALAMOSA        SUNNY     54  32  43 CALM      30.38S
LA VETA PASS   SUNNY     46  30  53 S9G18     30.46R
SAGUACHE       SUNNY     55  30  38 NW5       30.40R
$$

COZ035-036-038>040-231800-
...NORTHERN COLORADO FRONT RANGE...

CITY           SKY/WX    TMP DP  RH WIND       PRES   REMARKS
DENVER INTL AP MOSUNNY   66  32  28 SW9       30.18F
DMNS CITY PARK   N/A     68  32  25 S6        30.17F
AURORA         MOSUNNY   65  32  29 SW9       30.20F
FRONT RANGE AP MOSUNNY   68  32  26 SW9       30.19
ERIE MUNI ARPT MOSUNNY   69  30  23 S3        30.16F
BOULDER MUN AP MOSUNNY   64  36  34 CALM      30.17S
CENTENNIAL     MOSUNNY   65  30  27 SW6       30.20F
BROOMFIELD     PTSUNNY   68  30  24 W9G17     30.19S
FORT COLLINS   MOSUNNY   61  39  44 S7        30.17F
LONGMONT       MOSUNNY   65  40  40 SW5       30.17F
$$

COZ041-046-047-076>085-087-088-231800-
...PIKES PEAK/PALMER DIVIDE AND SOUTHERN FOOTHILLS...

CITY           SKY/WX    TMP DP  RH WIND       PRES   REMARKS
COLO. SPRINGS  MOSUNNY   64  30  27 VRB5      30.24F
A. F. ACADEMY  SUNNY     62  29  27 S3        30.25S
ELLICOTT       NOT AVBL
FALCON         SUNNY     64  24  22 W6        30.28S
FORT CARSON    SUNNY     65  31  27 S6        30.22R
LIMON          SUNNY     65  34  31 W3        30.20S
MONUMENT HILL  SUNNY     61  25  25 W7        30.26S
TRINIDAD       SUNNY     66  34  30 VRB3      30.23S
$$

COZ042>045-048>051-090-091-231800-
...NORTHEAST COLORADO...

CITY           SKY/WX    TMP DP  RH WIND       PRES   REMARKS
GREELEY ARPT   PTSUNNY   61  37  41 SW7       30.16F
AKRON          MOSUNNY   62  42  47 W8        30.16S
BURLINGTON     SUNNY     68  43  40 S8        30.16F
WRAY           SUNNY     72  44  37 S12       30.13F
STERLING       MOSUNNY   61  45  55 SW10      30.13S
HOLYOKE        SUNNY     68  45  42 SW8       30.12F
FORT MORGAN    MOSUNNY   58  39  49 W8        30.16F
$$

COZ086-089-092>099-231800-
...SOUTHEAST COLORADO...

CITY           SKY/WX    TMP DP  RH WIND       PRES   REMARKS
PUEBLO         SUNNY     64  39  39 VRB5      30.19F
LA JUNTA       SUNNY     64  47  53 SW7       30.17F
LAMAR          SUNNY     65  48  54 CALM      30.14F
SPRINGFIELD      N/A     68  47  46 N6        30.17S
$$



USA.gov is the U.S. government's official web portal to all federal, state and local government web resources and services.